CZ-3B R/B

基本信息
目录编号:
43649
目录名称:
CZ-3B R/B
国际标识:
2018-078C
轨道中心:
EARTH
物体状态:
在轨
发射日期:
2018-10-15 UTC
国别:
中国 (CN)
轨道信息
数据来源: 国际轨道数据
星历时间: 2026-07-14T01:06:42+0800
半长轴: 15170.239km
偏心率: 0.5515682
轨道倾角: 54.910°
近地点辐角: 8.075°
升交点赤经: 218.505°
平近点角: 358.111°
近地点: 424.68km
远地点: 17159.524km
周期: 309.919分钟
每日圈数: 4.646374
详细信息
发射场:
XSC
轨道高度:
LEO
数据来源:
AOE Integration Group
参考系:
TEME
时间系统:
UTC
历元类型:
SGP4
2D轨道图
3D轨道图
轨道高度分析图
轨道倾角分析图
轨道综合分析图
查看轨道综合分析图